Terminal Aerodrome Forecast
Issued by NWS Shreveport, LA

Home | Current Version | Previous Version | Text Only | Print | Product List | Glossary On
Versions: 1 2 3 4 5 6 7 8 9 10 11 12 13 14 15 16 17 18 19 20 21 22 23 24 25 26 27 28 29 30 31
720
FTUS44 KSHV 211914 AAA
TAFSHV
TAF AMD
KSHV 211914Z 2119/2218 27008KT P6SM SCT025 OVC050
      TEMPO 2119/2121 OVC025
     FM220100 33005KT P6SM BKN035
     FM220800 35005KT P6SM OVC015
      TEMPO 2209/2212 4SM BR OVC008
     FM221500 01005KT P6SM SCT025=

USA.gov is the U.S. government's official web portal to all federal, state and local government web resources and services.